Weather History for PASY - December, 2012

Change the Weather History Date:

Thursday, December 6, 2012

  Actual Average Record
Temperature  
Mean Temperature 32 °F -  
Max Temperature 37 °F 36 °F 46 °F (1996)
Min Temperature 28 °F 29 °F 15 °F (1971)
Degree Days  
Heating Degree Days 32    
Moisture  
Dew Point 27 °F    
Average Humidity 78    
Maximum Humidity 93    
Minimum Humidity 59    
Precipitation  
Precipitation 0.00 in - - ()
Sea Level Pressure  
Sea Level Pressure 30.14 in    
Wind  
Wind Speed 18 mph (NNE)    
Max Wind Speed 26 mph    
Max Gust Speed 34 mph    
Visibility 8 miles    
Events Snow    
Averages and records for this station are not official NWS values.
T = Trace of Precipitation, MM = Missing Value Source: NWS Daily Summary

Daily Weather History Graph

Daily Weather History Graph

Search for Another Location

Airport or City:

Trip Planner

Search our weather history database for the weather conditions in past years. The results will help you decide how hot, cold, wet, or windy it might be!

Date:

Astronomy

Dec. 05, 2012 Rise Set
Actual Time 10:19 AM HAST 6:09 PM HAST
Civil Twilight 9:38 AM HAST 6:50 PM HAST
Nautical Twilight 8:54 AM HAST 7:34 PM HAST
Astronomical Twilight 8:12 AM HAST 8:16 PM HAST
Moon 2:00 AM HAST (12/6) 2:31 PM HAST (12/6)
Length of Visible Light 9h 12m
Length of Day
7h 50m
Waning Gibbous, 47% of the Moon is Illuminated
Dec 6
Waning Gibbous
Dec 12
New
Dec 19
First Quarter
Dec 28
Full
Jan 4
Last Quarter

Hourly Weather History & Observations

Time (HAST) Temp. Windchill Dew Point Humidity Pressure Visibility Wind Dir Wind Speed Gust Speed Precip Events Conditions
12:17 AM 35.6 °F 25.2 °F 30.2 °F 81% 30.14 in 10.0 mi ENE 18.4 mph - N/A   Overcast
12:56 AM 36.0 °F 26.0 °F 30.0 °F 79% 30.15 in 10.0 mi ENE 17.3 mph - N/A   Overcast
1:56 AM 36.0 °F 25.6 °F 27.0 °F 70% 30.15 in 10.0 mi NE 18.4 mph - N/A   Clear
2:56 AM 36.0 °F 26.7 °F 26.1 °F 67% 30.15 in 10.0 mi NE 15.0 mph - N/A   Clear
3:56 AM 36.0 °F 26.3 °F 26.1 °F 67% 30.15 in 10.0 mi NNE 16.1 mph - N/A   Scattered Clouds
4:56 AM 35.1 °F 24.1 °F 27.0 °F 72% 30.16 in 10.0 mi NNE 19.6 mph - N/A   Mostly Cloudy
5:56 AM 35.1 °F 25.9 °F 28.0 °F 76% 30.16 in 10.0 mi NNE 13.8 mph - N/A   Mostly Cloudy
6:56 AM 34.0 °F 24.6 °F 25.0 °F 70% 30.16 in 10.0 mi NNE 13.8 mph - N/A   Partly Cloudy
7:56 AM 33.1 °F 20.6 °F 28.9 °F 85% 30.16 in 10.0 mi North 23.0 mph 27.6 mph N/A   Mostly Cloudy
8:56 AM 33.1 °F 23.4 °F 26.1 °F 75% 30.17 in 10.0 mi North 13.8 mph - N/A   Mostly Cloudy
9:56 AM 34.0 °F 24.2 °F 26.1 °F 73% 30.16 in 10.0 mi NNE 15.0 mph - N/A   Mostly Cloudy
10:12 AM 33.8 °F 24.3 °F 28.4 °F 81% 30.16 in 6.2 mi North 13.8 mph - N/A Snow Light Snow
10:24 AM 32.0 °F 20.1 °F 28.4 °F 87% 30.16 in 10.0 mi NNW 19.6 mph - N/A   Overcast
10:56 AM 33.1 °F 20.9 °F 28.0 °F 82% 30.17 in 4.0 mi North 21.9 mph - N/A Snow Light Snow
10:59 AM 32.0 °F 20.5 °F 28.4 °F 87% 30.16 in 2.5 mi North 18.4 mph - N/A Snow Light Snow
11:07 AM 30.2 °F 20.2 °F 28.4 °F 93% 30.16 in 1.5 mi North 12.7 mph - N/A Snow Light Snow
11:10 AM 30.2 °F 17.8 °F 28.4 °F 93% 30.16 in 1.2 mi North 19.6 mph - N/A Snow Light Snow
11:19 AM 30.2 °F 18.9 °F 28.4 °F 93% 30.16 in 1.5 mi North 16.1 mph - N/A Snow Light Snow
11:21 AM 30.2 °F 20.2 °F 28.4 °F 93% 30.16 in 1.8 mi North 12.7 mph - N/A Snow Light Snow
11:25 AM 32.0 °F 21.2 °F 30.2 °F 93% 30.16 in - North 16.1 mph - N/A Snow Light Snow
11:34 AM 32.0 °F 23.6 °F 30.2 °F 93% 30.16 in 6.2 mi North 10.4 mph - N/A Snow Light Snow
11:49 AM 33.8 °F 24.3 °F 28.4 °F 81% 30.16 in 6.2 mi North 13.8 mph - N/A   Overcast
11:56 AM 34.0 °F 23.4 °F 27.0 °F 75% 30.16 in 10.0 mi North 17.3 mph - N/A   Overcast
12:56 PM 35.1 °F 25.2 °F 28.0 °F 76% 30.16 in 10.0 mi NNE 16.1 mph - N/A   Mostly Cloudy
1:56 PM 35.1 °F 25.5 °F 26.1 °F 70% 30.14 in 10.0 mi North 15.0 mph - N/A   Mostly Cloudy
2:56 PM 35.1 °F 24.8 °F 26.1 °F 70% 30.13 in 10.0 mi North 17.3 mph - N/A   Mostly Cloudy
3:56 PM 33.1 °F 22.2 °F 27.0 °F 78% 30.13 in 10.0 mi North 17.3 mph 26.5 mph N/A   Scattered Clouds
4:56 PM 33.1 °F 21.9 °F 24.1 °F 70% 30.11 in 10.0 mi North 18.4 mph - N/A   Overcast
5:56 PM 32.0 °F 20.5 °F 21.9 °F 66% 30.11 in 10.0 mi North 18.4 mph - N/A   Partly Cloudy
6:56 PM 32.0 °F 21.6 °F 23.0 °F 69% 30.12 in 10.0 mi North 15.0 mph - N/A   Overcast
7:56 PM 32.0 °F 20.8 °F 25.0 °F 75% 30.11 in 10.0 mi North 17.3 mph 24.2 mph N/A   Overcast
8:56 PM 33.1 °F 23.4 °F 26.1 °F 75% 30.10 in 10.0 mi North 13.8 mph - N/A   Mostly Cloudy
9:56 PM 33.1 °F 21.9 °F 27.0 °F 78% 30.09 in 9.0 mi North 18.4 mph - N/A   Mostly Cloudy
10:10 PM 30.2 °F 16.5 °F 26.6 °F 86% 30.09 in 5.0 mi NNE 24.2 mph 34.5 mph N/A Snow Light Snow
10:17 PM 30.2 °F 19.8 °F 28.4 °F 93% 30.08 in 4.0 mi NNE 13.8 mph 29.9 mph N/A Snow Light Snow
10:24 PM 32.0 °F 18.4 °F 28.4 °F 87% 30.09 in 6.2 mi North 26.5 mph 32.2 mph N/A   Mostly Cloudy
10:40 PM 30.2 °F 16.5 °F 28.4 °F 93% 30.09 in - North 24.2 mph - N/A Snow Light Snow
10:56 PM 32.0 °F 20.5 °F 28.9 °F 88% 30.09 in 8.0 mi North 18.4 mph 25.3 mph N/A Snow Light Snow
11:34 PM 33.8 °F 20.8 °F 24.8 °F 70% 30.07 in 6.2 mi NNE 26.5 mph 31.1 mph N/A   Overcast
11:56 PM 33.1 °F 20.9 °F 25.0 °F 72% 30.07 in 10.0 mi NNE 21.9 mph 27.6 mph N/A   Mostly Cloudy